DW7673 Weather Reports


Display with metric or nautical units.
time (UTC)temp
F
wind
direction
speed
MPH
gust
MPH
rain 1hr
in
rain 24hr
in
rain mn
in
humidity
%
barometer
mb
20180527210301 90 188 2.0 6.0 0.00 0.00 0.00 15 1006.8
20180527205303 91 269 0.0 3.0 0.00 0.00 0.00 14 1006.9
20180527204302 91 230 1.0 6.0 0.00 0.00 0.00 15 1006.9
20180527203301 90 240 1.0 7.0 0.00 0.00 0.00 15 1007.0
20180527202301 91 140 2.0 6.0 0.00 0.00 0.00 15 1006.9
20180527201302 90 35 1.0 6.0 0.00 0.00 0.00 16 1006.9
20180527200301 90 121 2.0 7.0 0.00 0.00 0.00 16 1007.1
20180527195301 89 161 0.0 3.0 0.00 0.00 0.00 17 1007.1
20180527194302 89 226 1.0 3.0 0.00 0.00 0.00 17 1007.2
20180527193302 89 304 1.0 7.0 0.00 0.00 0.00 17 1007.5
20180527192301 88 131 0.0 5.0 0.00 0.00 0.00 17 1007.3
20180527191302 88 84 1.0 9.0 0.00 0.00 0.00 17 1007.5
20180527190302 88 109 3.0 7.0 0.00 0.00 0.00 17 1007.4
20180527185302 87 217 0.0 5.0 0.00 0.00 0.00 18 1007.5
20180527184302 87 118 3.0 6.0 0.00 0.00 0.00 18 1007.7
20180527183301 86 255 1.0 8.0 0.00 0.00 0.00 19 1007.7
20180527182301 86 264 2.0 6.0 0.00 0.00 0.00 18 1008.0
20180527181301 85 89 1.0 3.0 0.00 0.00 0.00 18 1007.9
20180527180301 86 236 3.0 5.0 0.00 0.00 0.00 18 1007.9
20180527175301 85 318 0.0 3.0 0.00 0.00 0.00 20 1007.9
20180527174302 85 84 1.0 3.0 0.00 0.00 0.00 20 1008.3
20180527173302 84 126 1.0 3.0 0.00 0.00 0.00 21 1008.0
20180527172302 84 76 1.0 3.0 0.00 0.00 0.00 20 1008.0
20180527171302 84 94 1.0 3.0 0.00 0.00 0.00 20 1008.0
20180527170302 84 116 1.0 3.0 0.00 0.00 0.00 20 1008.0
20180527165301 83 299 0.0 1.0 0.00 0.00 0.00 21 1008.1
20180527164302 83 257 1.0 3.0 0.00 0.00 0.00 22 1008.1
20180527163301 82 151 0.0 3.0 0.00 0.00 0.00 22 1008.1
20180527162302 81 160 1.0 3.0 0.00 0.00 0.00 23 1008.1
20180527161301 80 113 0.0 3.0 0.00 0.00 0.00 25 1008.2
20180527160301 79 92 0.0 3.0 0.00 0.00 0.00 25 1008.3
20180527155301 79 118 1.0 3.0 0.00 0.00 0.00 26 1008.3
20180527154302 78 129 1.0 2.0 0.00 0.00 0.00 27 1008.4
20180527153301 78 134 1.0 3.0 0.00 0.00 0.00 27 1008.3
20180527152303 76 131 0.0 3.0 0.00 0.00 0.00 29 1008.4
20180527151302 76 160 1.0 2.0 0.00 0.00 0.00 28 1008.4
20180527150302 75 118 0.0 2.0 0.00 0.00 0.00 30 1008.3
20180527145302 74 135 1.0 3.0 0.00 0.00 0.00 31 1008.2
20180527144302 74 103 0.0 0.0 0.00 0.00 0.00 31 1008.1
20180527143301 74 126 0.0 2.0 0.00 0.00 0.00 32 1008.0
20180527142302 73 128 0.0 1.0 0.00 0.00 0.00 32 1008.0
20180527141301 73 124 0.0 0.0 0.00 0.00 0.00 32 1007.9
20180527140304 71 137 0.0 0.0 0.00 0.00 0.00 33 1007.8
20180527135302 70 134 0.0 1.0 0.00 0.00 0.00 35 1007.7
20180527134302 69 128 0.0 1.0 0.00 0.00 0.00 36 1007.7
20180527133301 66 131 0.0 0.0 0.00 0.00 0.00 42 1007.5
20180527132302 66 131 0.0 0.0 0.00 0.00 0.00 41 1007.4
20180527131301 65 131 0.0 0.0 0.00 0.00 0.00 41 1007.3
20180527130302 66 131 0.0 2.0 0.00 0.00 0.00 39 1007.2
20180527125302 65 128 0.0 1.0 0.00 0.00 0.00 39 1007.0
20180527124303 65 60 0.0 0.0 0.00 0.00 0.00 39 1006.8
20180527123302 66 60 0.0 0.0 0.00 0.00 0.00 38 1006.7
20180527122302 65 356 0.0 1.0 0.00 0.00 0.00 39 1006.7
20180527121302 64 97 0.0 0.0 0.00 0.00 0.00 40 1006.5
20180527120302 65 98 0.0 0.0 0.00 0.00 0.00 38 1006.5
20180527115302 65 139 0.0 0.0 0.00 0.00 0.00 38 1006.5
20180527114302 65 128 0.0 0.0 0.00 0.00 0.00 38 1006.5
20180527113302 64 129 0.0 0.0 0.00 0.00 0.00 39 1006.4
20180527112305 64 129 0.0 0.0 0.00 0.00 0.00 38 1006.4
20180527111302 64 129 0.0 0.0 0.00 0.00 0.00 38 1006.3
20180527110302 65 128 0.0 0.0 0.00 0.00 0.00 37 1006.2
20180527104302 66 128 0.0 0.0 0.00 0.00 0.00 36 1006.0
20180527103302 66 128 0.0 0.0 0.00 0.00 0.00 36 1006.0
20180527102302 66 128 0.0 0.0 0.00 0.00 0.00 34 1006.0
20180527101303 66 128 0.0 0.0 0.00 0.00 0.00 35 1006.0
20180527100303 67 128 0.0 0.0 0.00 0.00 0.00 35 1006.0
20180527095303 67 128 0.0 0.0 0.00 0.00 0.00 34 1005.9
20180527094302 68 129 0.0 0.0 0.00 0.00 0.00 33 1005.8
20180527093303 69 128 0.0 0.0 0.00 0.00 0.00 32 1005.8
20180527092306 70 129 0.0 1.0 0.00 0.00 0.00 30 1005.8
20180527091302 71 243 0.0 0.0 0.00 0.00 0.00 29 1005.9
20180527090324 72 243 0.0 0.0 0.00 0.00 0.00 27 1005.9
20180527085305 73 243 0.0 1.0 0.00 0.00 0.00 26 1005.9
20180527084317 74 204 0.0 1.0 0.00 0.00 0.00 25 1005.9
20180527082305 76 263 1.0 5.0 0.00 0.00 0.00 23 1005.8
20180527081302 76 266 1.0 3.0 0.00 0.00 0.00 23 1005.8
20180527080302 75 257 1.0 2.0 0.00 0.00 0.00 24 1005.9
20180527075305 76 246 1.0 3.0 0.00 0.00 0.00 23 1006.1
20180527074302 76 268 0.0 2.0 0.00 0.00 0.00 24 1006.0
20180527073302 76 281 0.0 5.0 0.00 0.00 0.00 23 1006.1
20180527072306 77 264 1.0 5.0 0.00 0.00 0.00 23 1006.1
20180527071302 77 238 2.0 6.0 0.00 0.00 0.00 23 1006.1
20180527070302 77 236 1.0 5.0 0.00 0.00 0.00 23 1006.1
20180527065303 77 259 1.0 5.0 0.00 0.00 0.00 23 1006.1
20180527064302 77 236 0.0 8.0 0.00 0.00 0.00 23 1006.2
20180527063302 77 259 0.0 6.0 0.00 0.00 0.00 23 1006.2
20180527062302 77 250 1.0 6.0 0.00 0.00 0.00 23 1006.2
20180527061303 77 271 2.0 9.0 0.00 0.00 0.00 23 1006.1
20180527060302 77 241 2.0 5.0 0.00 0.00 0.00 23 1006.2
20180527055302 78 246 1.0 6.0 0.00 0.00 0.00 22 1006.4
20180527054302 78 244 2.0 7.0 0.00 0.00 0.00 22 1006.5
20180527053303 78 257 1.0 3.0 0.00 0.00 0.00 22 1006.6
20180527052303 78 242 1.0 5.0 0.00 0.00 0.00 22 1006.5
20180527051303 79 262 2.0 7.0 0.00 0.00 0.00 21 1006.4
20180527050303 79 265 2.0 8.0 0.00 0.00 0.00 21 1006.2
20180527045302 79 265 3.0 8.0 0.00 0.00 0.00 21 1006.3
20180527044303 79 270 2.0 7.0 0.00 0.00 0.00 21 1006.1
20180527043303 80 264 3.0 8.0 0.00 0.00 0.00 21 1006.1
20180527042304 80 256 2.0 9.0 0.00 0.00 0.00 21 1005.9
20180527041302 80 270 2.0 6.0 0.00 0.00 0.00 21 1006.1
20180527040303 80 294 2.0 7.0 0.00 0.00 0.00 20 1005.8
20180527035304 80 302 1.0 6.0 0.00 0.00 0.00 20 1005.6
20180527034302 81 294 1.0 3.0 0.00 0.00 0.00 19 1005.6
20180527033303 81 267 2.0 5.0 0.00 0.00 0.00 18 1005.4
20180527032303 82 293 2.0 8.0 0.00 0.00 0.00 18 1005.2
20180527031302 82 258 3.0 12.0 0.00 0.00 0.00 17 1005.1
20180527030303 82 229 4.0 10.0 0.00 0.00 0.00 17 1005.0
20180527025302 82 284 3.0 13.0 0.00 0.00 0.00 17 1004.9
20180527024303 83 259 5.0 13.0 0.00 0.00 0.00 17 1004.8
20180527023303 83 276 5.0 9.0 0.00 0.00 0.00 15 1004.8
20180527022303 83 293 3.0 8.0 0.00 0.00 0.00 14 1004.8
20180527021303 84 262 3.0 8.0 0.00 0.00 0.00 13 1004.7
20180527020303 84 255 3.0 12.0 0.00 0.00 0.00 13 1004.7
20180527015303 85 278 6.0 13.0 0.00 0.00 0.00 12 1004.4
20180527014326 85 273 2.0 13.0 0.00 0.00 0.00 12 1004.5
20180527013306 86 288 5.0 9.0 0.00 0.00 0.00 12 1004.6
20180527012303 86 295 5.0 13.0 0.00 0.00 0.00 11 1004.5
20180527011303 86 283 4.0 10.0 0.00 0.00 0.00 11 1004.5
20180527010303 87 255 2.0 10.0 0.00 0.00 0.00 11 1004.6
20180527005303 87 290 3.0 8.0 0.00 0.00 0.00 10 1004.7
20180527004302 88 257 3.0 10.0 0.00 0.00 0.00 10 1004.8
20180527003303 88 290 4.0 10.0 0.00 0.00 0.00 10 1004.7
20180527002303 89 266 3.0 8.0 0.00 0.00 0.00 9 1004.7
20180527001303 89 156 2.0 8.0 0.00 0.00 0.00 10 1004.7
20180527000303 89 257 3.0 9.0 0.00 0.00 0.00 9 1004.7
20180526235303 90 283 2.0 9.0 0.00 0.00 0.00 9 1004.9
20180526234303 91 278 3.0 8.0 0.00 0.00 0.00 9 1005.1
20180526233303 91 261 3.0 12.0 0.00 0.00 0.00 8 1005.0
20180526232303 91 165 3.0 10.0 0.00 0.00 0.00 8 1004.9
20180526231303 91 273 3.0 8.0 0.00 0.00 0.00 8 1004.9
20180526224303 91 255 3.0 8.0 0.00 0.00 0.00 9 1005.1
20180526223303 91 125 3.0 10.0 0.00 0.00 0.00 9 1005.3
20180526222303 91 267 3.0 10.0 0.00 0.00 0.00 10 1005.1
20180526221303 92 234 3.0 10.0 0.00 0.00 0.00 10 1005.2
20180526220303 92 222 4.0 12.0 0.00 0.00 0.00 10 1005.5
20180526215303 92 206 7.0 18.0 0.00 0.00 0.00 10 1005.8
20180526214303 92 250 3.0 12.0 0.00 0.00 0.00 9 1005.6
20180526213303 92 270 3.0 10.0 0.00 0.00 0.00 9 1005.6
20180526212303 92 209 4.0 13.0 0.00 0.00 0.00 9 1005.7
20180526211303 92 188 1.0 7.0 0.00 0.00 0.00 11 1005.9